Location: Sun City Post Office
(33.6899°N, 117.1771°W)
Time: 08:44:10
(UTC+00:00)

Daily predictions for brighter satellites

Satellite Brightness Start Highest point End
(mag) Time Altitude Azimuth Time Altitude Azimuth Time Altitude Azimuth
Delta 2 Rocket 4.3 12:11:35 48° ENE 12:11:35 48° ENE 12:15:04 10° ENE
Yuri Rocket 4.2 12:12:06 49° SSW 12:12:38 50° S 12:17:34 10° ESE
ATLAS 2AS CENTAUR R/B 3.8 12:08:23 17° NNW 12:13:54 42° NE 12:20:24 10° ESE
OAO 3 Rocket 3.1 12:21:23 84° E 12:21:23 84° E 12:26:03 10° E
Cosmos 2150 Rocket 4.1 12:18:07 10° SSW 12:23:34 81° ESE 12:29:01 10° NNE
Cosmos 1459 Rocket 3.9 12:17:55 10° S 12:24:05 86° E 12:30:24 10° N
CZ-2C R/B 4.1 12:20:31 10° N 12:21:57 20° N 12:21:57 20° N
Cosmos 158 Rocket 3.9 12:28:41 58° SW 12:28:41 58° SW 12:32:50 10° S
OAO 3 Copernicus 4.1 12:28:58 74° W 12:29:26 90° N 12:34:29 10° E
Cosmos 372 Rocket 3.8 12:24:46 10° SSW 12:29:55 90° ESE 12:35:05 10° NNE
ASTEX 1 3.2 12:26:10 10° S 12:31:05 72° W 12:32:27 47° NNW
OAO 2 Rocket 3.3 12:30:36 64° WSW 12:31:12 73° SSW 12:36:18 10° ESE
Sakura Rocket 4.5 12:34:33 35° WSW 12:36:55 48° SSW 12:42:16 10° ESE
Cosmos 2016 Rocket 4.2 12:31:16 10° S 12:37:29 75° E 12:43:48 10° N
COSMO-SKYMED 1 4.2 12:34:44 10° SE 12:38:37 33° ENE 12:42:31 10° N
Cosmos 1833 4.5 12:34:22 10° S 12:39:55 68° ESE 12:45:30 10° NNE
Meteor 2-20 Rocket 4.3 12:33:50 10° N 12:40:00 75° W 12:46:07 10° S
Cosmos 2360 Rocket 3.9 12:36:09 10° N 12:41:09 31° ENE 12:46:07 10° SE
Cosmos 1980 Rocket 3.7 12:48:58 19° SW 12:48:58 19° SW 12:51:15 10° SSW
SL-16 R/B 2.1 12:42:54 18° NNW 12:47:11 88° ENE 12:52:51 10° SSE
Cosmos 1825 2.0 12:49:37 10° S 12:53:22 88° E 12:57:09 10° N
Cosmos 2322 Rocket 2.2 12:48:44 13° NNW 12:53:48 86° ENE 12:59:29 10° SSE
ATLAS CENTAUR R/B 3.0 13:01:41 23° NW 13:01:41 23° NW 13:04:47 10° N
Cosmos 2100 Rocket 4.3 12:55:53 10° SSW 13:01:40 41° W 13:07:26 10° N
Cosmos 972 Rocket 4.5 12:57:10 10° S 13:02:05 63° ESE 13:07:26 10° NNE
METEOR-M 4.5 12:59:48 10° NNE 13:05:08 69° ESE 13:10:26 10° S
SL-08 R/B 4.3 12:59:19 10° S 13:05:26 77° W 13:11:32 10° N
COBE Rocket 4.1 13:05:16 10° S 13:10:19 55° W 13:15:17 10° NNW
Tsikada Rocket 4.3 13:05:05 10° N 13:11:26 70° E 13:17:40 10° SSE
Cosmos 1484 Rocket 3.0 13:09:17 10° N 13:13:09 47° WNW 13:16:59 10° SSW
Meteor 2-3 Rocket 4.0 13:07:39 10° S 13:13:21 73° E 13:19:07 10° NNE
FENGYUN 3A 3.8 13:08:10 10° NNE 13:13:37 79° ESE 13:18:59 10° S
Cosmos 1151 Rocket 3.0 13:10:05 10° NNW 13:14:24 63° W 13:18:40 10° S
BREEZE-M DEB (TANK) 3.9 13:06:00 13° NW 13:14:42 47° NNE 13:18:02 10° E
STARLINK-67 4.1 13:16:50 16° N 13:18:21 28° NE 13:20:40 10° ESE
SL-4 R/B 3.0 13:16:16 14° NW 13:20:14 53° NE 13:24:54 10° ESE
Cosmos 1408 3.6 13:17:25 10° SW 13:20:27 24° W 13:23:30 10° NNW
Cosmos 1802 Rocket 4.5 13:16:17 10° SW 13:22:11 38° WNW 13:28:06 10° NNW
Okean O Rocket 1.5 13:20:41 10° NNE 13:25:02 88° WNW 13:29:23 10° SSW
NOSS 3-4 (A) 4.0 13:17:51 10° NNW 13:25:09 90° WSW 13:33:05 10° SSE
NOSS 3-4 (C) 4.0 13:17:58 10° NNW 13:25:15 89° ENE 13:33:11 10° SSE
Cosmos 468 4.5 13:20:13 10° NNW 13:25:32 86° WSW 13:30:47 10° SSE
Cosmos 2228 Rocket 3.6 13:20:59 10° N 13:25:34 66° E 13:30:05 10° SSE
Cosmos 1328 Rocket 3.9 13:22:31 10° NNW 13:26:33 40° W 13:30:33 10° SSW
SKYMED 2 3.6 13:22:22 10° S 13:26:38 62° W 13:30:57 10° NNW
Cosmos 2219 Rocket 4.2 13:25:38 10° N 13:30:20 26° ENE 13:35:01 10° ESE
Cosmos 1743 Rocket 3.6 13:26:29 10° SSW 13:30:42 51° W 13:34:55 10° N
CZ-4B R/B 3.2 13:25:23 10° NNE 13:30:52 87° WNW 13:36:25 10° SSW
Cosmos 1515 Rocket 3.5 13:27:40 10° NNW 13:31:57 61° W 13:36:13 10° S
Radarsat Rocket 4.5 13:28:10 10° NNE 13:33:58 65° ESE 13:40:09 10° S
ALOS 2.4 13:30:54 10° N 13:35:27 54° WNW 13:39:59 10° SSW
Shenzhou-11 Module 2.2 13:34:05 19° W 13:35:43 46° SSW 13:38:19 10° SE
COSMOS 2455 3.6 13:30:49 11° NW 13:35:48 33° WSW 13:41:03 10° S
Cosmos 1400 Rocket 3.0 13:31:49 10° N 13:35:51 73° E 13:39:47 10° SSE
Cosmos 2333 Rocket 4.0 13:31:25 10° N 13:36:30 31° ENE 13:41:33 10° ESE
GPS 2-05 Rocket1 3.7 13:34:13 10° SW 13:36:38 33° SSE 13:39:04 10° E
Cosmos 1238 Rocket 4.0 13:30:48 10° SSW 13:37:23 69° W 13:43:25 10° N
BREEZE-M DEB (TANK) 3.5 13:38:01 13° WNW 13:40:44 71° SW 13:49:49 10° SE
Helios 1A Rocket 3.0 13:38:27 10° N 13:42:24 50° WNW 13:46:18 10° SSW
Timation 2 Rocket 3.8 13:36:34 10° SSW 13:42:40 78° WNW 13:48:40 10° NNE
Cosmos 2233 Rocket 4.0 13:37:19 10° SSW 13:43:30 64° W 13:49:47 10° N
Starlink Launch 2 trailer 4.4 13:43:41 10° SSW 13:45:54 30° SE 13:48:08 10° ENE
FALCON 9 DEB 4.4 13:43:59 10° SSW 13:46:08 29° SE 13:48:19 10° ENE
Cosmos 494 Rocket 4.4 13:41:56 10° NNW 13:47:09 68° ENE 13:52:18 10° SSE
FALCON 9 DEB 4.3 13:46:16 10° SSW 13:48:29 32° SE 13:50:44 10° ENE
CZ-3B R/B 2.3 13:45:32 10° WSW 13:51:26 36° S 13:54:46 10° ESE
Delta 2 Rocket 3.8 13:48:33 10° W 13:53:02 70° N 13:58:07 10° E
Cosmos 1500 Rocket 4.3 13:49:24 10° SW 13:53:23 31° W 13:57:22 10° NNW
BREEZE-M DEB (TANK) 2.7 13:53:01 10° WNW 13:55:02 30° SW 13:58:09 10° SSE
Sich 1 3.1 13:55:44 10° S 13:59:59 82° E 14:04:16 10° N
